Location: Brantford
(43.1330°N, 80.2670°W)
Time: 02:50:08
(UTC-05:00)

Explorer 7 - All Passes

Search period start: 13 November 2019 00:00
Search period end: 23 November 2019 00:00
Orbit: 485 x 680 km, 50.3° (Epoch: 12 November)

Date Brightness Start Highest point End Pass type
(mag) Time Alt. Az. Time Alt. Az. Time Alt. Az.
13 Nov - 01:43:28 10° SSW 01:47:26 30° SE 01:51:12 10° ENE night (unlit)
13 Nov - 03:23:27 10° WSW 03:27:49 62° NNW 03:31:55 10° ENE visible
13 Nov - 05:05:08 10° WNW 05:08:52 30° N 05:12:25 10° ENE visible
13 Nov - 06:46:20 10° NW 06:50:06 37° NNE 06:53:42 10° E daylight
13 Nov - 08:26:55 10° WNW 08:30:46 61° SW 08:34:29 10° SE daylight
14 Nov - 01:47:55 10° SW 01:52:17 47° SE 01:56:24 10° ENE night (unlit)
14 Nov - 03:28:38 10° W 03:32:53 46° NNW 03:36:52 10° NE visible
14 Nov - 05:10:22 10° WNW 05:14:03 29° N 05:17:34 10° ENE visible
14 Nov - 06:51:18 10° NW 06:55:12 47° NNE 06:58:56 10° E daylight
14 Nov - 08:32:01 10° WNW 08:35:39 37° SW 08:39:09 10° SSE daylight
15 Nov - 00:14:34 10° SSE 00:17:08 15° SE 00:19:37 10° E night (unlit)
15 Nov - 01:52:40 10° SW 01:57:12 73° SSE 02:01:27 10° ENE night (unlit)
15 Nov - 03:33:54 10° W 03:37:59 38° NNW 03:41:51 10° NE visible
15 Nov - 05:15:31 10° WNW 05:19:14 30° N 05:22:46 10° ENE visible
15 Nov - 06:56:15 10° WNW 07:00:16 66° NNE 07:04:04 10° ESE daylight
15 Nov - 08:37:20 10° W 08:40:26 23° SW 08:43:28 10° S daylight
16 Nov - 00:18:13 10° S 00:21:53 23° SE 00:25:25 10° E night (unlit)
16 Nov - 01:57:36 10° WSW 02:02:10 79° NNW 02:06:26 10° ENE night (unlit)
16 Nov - 03:39:11 10° WNW 03:43:08 33° N 03:46:52 10° NE visible
16 Nov - 05:20:35 10° NW 05:24:24 34° N 05:28:02 10° ENE visible
16 Nov - 07:01:13 10° WNW 07:05:15 84° SSW 07:09:05 10° SE daylight
16 Nov - 08:43:06 10° W 08:45:10 14° SW 08:47:11 10° SSW daylight
17 Nov - 00:22:26 10° SSW 00:26:42 36° SE 00:30:45 10° ENE night (unlit)
17 Nov - 02:02:42 10° WSW 02:07:11 57° NNW 02:11:23 10° NE night (unlit)
17 Nov - 03:44:26 10° WNW 03:48:18 30° N 03:51:58 10° ENE visible
17 Nov - 05:25:35 10° NW 05:29:33 40° NNE 05:33:17 10° E visible
17 Nov - 07:06:15 10° WNW 07:10:10 53° SW 07:13:54 10° SE daylight
17 Nov - 22:50:31 10° SE 22:51:39 11° SE 22:52:46 10° ESE night (unlit)
18 Nov - 00:27:00 10° SW 00:31:34 56° SE 00:35:53 10° ENE night (unlit)
18 Nov - 02:07:55 10° W 02:12:15 44° NNW 02:16:21 10° NE night (unlit)
18 Nov - 03:49:38 10° WNW 03:53:30 30° N 03:57:08 10° ENE visible
18 Nov - 05:30:33 10° NW 05:34:38 53° NNE 05:38:29 10° E visible
18 Nov - 07:11:25 10° WNW 07:15:00 33° SW 07:18:27 10° SSE daylight
18 Nov - 22:53:11 10° S 22:56:21 18° SE 22:59:26 10° E night (unlit)
19 Nov - 00:31:48 10° SW 00:36:29 82° SSE 00:40:54 10° ENE night (unlit)
19 Nov - 02:13:10 10° W 02:17:22 37° NNW 02:21:20 10° NE night (unlit)
19 Nov - 03:54:46 10° WNW 03:58:40 32° N 04:02:21 10° ENE visible
19 Nov - 05:35:31 10° WNW 05:39:41 75° NNE 05:43:34 10° ESE visible
19 Nov - 07:16:48 10° W 07:19:46 20° SW 07:22:38 10° S daylight
19 Nov - 22:57:05 10° SSW 23:01:07 28° SE 23:04:59 10° ENE night (unlit)
20 Nov - 00:36:48 10° WSW 00:41:29 71° NNW 00:45:52 10° ENE night (unlit)
20 Nov - 02:18:27 10° WNW 02:22:32 33° N 02:26:23 10° ENE night (unlit)
20 Nov - 03:59:49 10° NW 04:03:49 36° NNE 04:07:37 10° E visible
20 Nov - 05:40:30 10° WNW 05:44:38 74° SSW 05:48:31 10° SE visible
20 Nov - 07:22:52 10° WSW 07:24:27 12° SW 07:26:02 10° SSW daylight
20 Nov - 23:01:26 10° SSW 23:05:56 42° SE 23:10:14 10° ENE night (unlit)
21 Nov - 00:41:56 10° W 00:46:30 53° NNW 00:50:50 10° NE night (unlit)
21 Nov - 02:23:41 10° WNW 02:27:42 31° N 02:31:29 10° ENE night (unlit)
21 Nov - 04:04:48 10° NW 04:08:57 45° NNE 04:12:51 10° E visible
21 Nov - 05:45:33 10° WNW 05:49:31 46° SW 05:53:16 10° SE visible
21 Nov - 21:28:33 10° SSE 21:30:49 13° SE 21:33:03 10° E night (unlit)
21 Nov - 23:06:05 10° SW 23:10:48 64° SE 23:15:18 10° ENE night (unlit)
22 Nov - 00:47:10 10° W 00:51:36 42° NNW 00:55:47 10° NE night (unlit)
22 Nov - 02:28:52 10° WNW 02:32:54 32° N 02:36:41 10° ENE night (unlit)
22 Nov - 04:09:46 10° WNW 04:14:02 60° NNE 04:18:00 10° ESE visible
22 Nov - 05:50:45 10° WNW 05:54:20 29° SW 05:57:44 10° SSE visible
22 Nov - 21:31:55 10° S 21:35:32 21° SE 21:39:04 10° E night (unlit)
22 Nov - 23:10:57 10° WSW 23:15:45 89° NNW 23:20:18 10° ENE night (unlit)
